Location: Lourdes
(43.1000°N, 0.0500°W)
Time: 05:57:15
(UTC+00:00)

ADEOS Rocket - Pass Details

Date: 30 November 2020
Orbit: 858 x 1307 km, 98.7° (Epoch: 27 January)

Event Time Altitude Azimuth Distance (km) Brightness Sun altitude
Rises 16:57:35 0° 12° (NNE) 4,266 6.0 -5.9°
Reaches altitude 10° 17:00:16 10° 11° (N) 3,316 5.4 -6.3°
Maximum altitude 17:08:03 78° 287° (WNW) 1,335 3.8 -7.6°
Drops below altitude 10° 17:15:41 10° 203° (SSW) 3,256 6.4 -8.9°
Sets 17:18:18 0° 202° (SSW) 4,185 7.0 -9.4°
